[[{"header":{"parameterUnit":"m.s-1","parameterCategory":2,"la1":30.2991,"la2":30.254,"lo1":-89.0895,"lo2":-89.0444,"dy":0.0017,"dx":0.0017,"nx":28,"ny":28,"refTime":"2024-08-13T03:00:00:Z","depth":"0","parameterNumber":2,"parameterNumberName":"U-component_of_CURRENTS"},"data":[0,0,0,0,0,0,0,0,0,0,0,0,0,0,0,0,0,0,0,0,0,0,0,0,0,0,0,0,0,0,0,0,0,0,0,0,0,0,0,0,0,0,0,0,0,0,0,0,0,0,0,0,0,0,0,0,0,0,0.4437,0.4437,0,0.439,0.4389,0.4388,0.438,0.438,0.4381,0.4381,0.4365,0.4364,0.4363,0,0,0,0,0,0,0,0,0,0,0,0,0,0.4439,0.444,0.4437,0.4437,0.4436,0.439,0.4389,0.4388,0.438,0.438,0.4381,0.4382,0.4365,0.4364,0.4363,0,0,0,0,0,0,0,0,0,0,0,0,0,0.4418,0.444,0.4437,0.4428,0.4427,0.439,0.4389,0.4388,0.4379,0.438,0.4381,0.4382,0.4366,0.4364,0.4363,0.4336,0,0,0.4358,0.4358,0,0,0,0,0,0,0,0,0.4419,0.4418,0.443,0.4429,0.4427,0.4393,0.4384,0.4373,0.4379,0.4395,0.4381,0.4382,0.4378,0.4375,0.4361,0.4336,0.4335,0.4358,0.4357,0.4357,0.4356,0,0,0,0,0,0,0,0.4421,0.4419,0.4416,0.4429,0.4428,0.4399,0.4397,0.4381,0.4381,0.4394,0.4394,0.4391,0.4377,0.4363,0.4361,0.4335,0.4358,0.4357,0.4356,0.4355,0.431,0.431,0,0,0,0,0,0,0.4434,0.4421,0.4418,0.4415,0.4428,0.4398,0.4396,0.4402,0.4381,0.4379,0.4391,0.4391,0.4365,0.4363,0.436,0.4305,0.4357,0.4355,0.4354,0.4311,0.431,0.431,0,0,0,0,0,0,0.4435,0.4435,0.442,0.4418,0.4415,0.4398,0.4404,0.44,0.4385,0.4378,0.4377,0.438,0.4365,0.4362,0.4335,0.4306,0.4354,0.4353,0.4311,0.4311,0.431,0.421,0,0,0,0,0,0,0.4435,0.4435,0.444,0.4419,0.4415,0.4386,0.4403,0.4399,0.4384,0.4384,0.4368,0.4368,0.4366,0.4337,0.4334,0.4305,0.4352,0.4312,0.4311,0.431,0.4214,0.4206,0.42,0,0,0,0,0,0.4435,0.4429,0.444,0.444,0.4424,0.4385,0.4379,0.4369,0.4383,0.4362,0.4355,0.4368,0.4332,0.4335,0.4331,0.4301,0.4312,0.4311,0.431,0.4217,0.4208,0.42,0,0,0,0,0,0,0.4434,0.4428,0.4439,0.4434,0.4411,0.4384,0.4361,0.4365,0.4343,0.4347,0.4348,0.4345,0.4323,0.4329,0.4332,0.4293,0.433,0.4329,0.4261,0.4252,0.4246,0.4237,0.4351,0,0,0,0,0,0.4438,0.4425,0.4419,0.4408,0.4398,0.4382,0.4367,0.4363,0.4344,0.4335,0.432,0.4318,0.4315,0.4297,0.4298,0.4256,0.4287,0.4243,0.4236,0.423,0.4224,0.4275,0.4271,0.4308,0.4308,0.4308,0,0,0.4425,0.4426,0.4415,0.4405,0.4385,0.4334,0.4373,0.4343,0.4299,0.4337,0.4269,0.4296,0.4306,0.4268,0.4258,0.4263,0.4229,0.4229,0.4223,0.4221,0.4274,0.427,0.4267,0.4307,0.4307,0.4307,0,0,0.4366,0.4402,0.4355,0.4335,0.4313,0.4304,0.4296,0.4268,0.4256,0.4209,0.4238,0.424,0.4211,0.4208,0.4207,0.4163,0.4205,0.4176,0.4106,0.4154,0.4151,0.415,0.4146,0.4145,0.4153,0.4153,0.4153,0,0.4328,0.4307,0.4332,0.4277,0.425,0.4284,0.4216,0.4201,0.4166,0.4156,0.4177,0.4171,0.4178,0.4147,0.4133,0.4142,0.4173,0.4129,0.4144,0.4143,0.4142,0.414,0.414,0.4148,0.4149,0.4149,0.415,0,0.423,0.4211,0.418,0.4125,0.4101,0.4056,0.4047,0.4028,0.4037,0.4032,0.4024,0.4047,0.4048,0.4055,0.4071,0.4069,0.409,0.4142,0.4159,0.4132,0.4132,0.4133,0.4141,0.4143,0.4144,0.4145,0,0,0.4091,0.4105,0.4082,0.4051,0.4025,0.3983,0.3934,0.3898,0.3869,0.3878,0.3847,0.3859,0.3915,0.3922,0.3962,0.3993,0.4,0.4057,0.4062,0.4041,0.4079,0.3885,0.3869,0.4068,0.4069,0.407,0.4064,0,0.3978,0.3893,0.3922,0.3812,0.3762,0.3796,0.3741,0.3727,0.3741,0.3725,0.3791,0.3786,0.3851,0.3864,0.3906,0.3995,0.4007,0.3995,0.4119,0.4121,0.3944,0.3866,0.3641,0.36,0.4066,0.4067,0.4067,0,0.383,0.3808,0.371,0.3682,0.3658,0.3604,0.356,0.3525,0.3547,0.3568,0.361,0.3671,0.371,0.3789,0.3899,0.3897,0.3972,0.4039,0.4042,0.3899,0.3931,0.3712,0.3586,0.3498,0.407,0.407,0.4069,0,0.3693,0.3638,0.3573,0.3552,0.3525,0.349,0.3479,0.3476,0.3454,0.3489,0.3487,0.3568,0.3602,0.3729,0.3852,0.3891,0.3979,0.405,0.3936,0.3923,0.377,0.374,0.3561,0.4122,0.4122,0.4122,0.4122,0,0.354,0.3462,0.3515,0.3458,0.3376,0.3397,0.3323,0.3328,0.3347,0.3312,0.3412,0.3403,0.36,0.3672,0.381,0.3838,0.3942,0.3888,0.3899,0.3721,0.3689,0.3639,0.364,0.4122,0.4122,0.4122,0.4122,0,0.3351,0.3389,0.3309,0.331,0.3304,0.3242,0.3235,0.3192,0.3229,0.3194,0.3203,0.3284,0.3355,0.351,0.369,0.373,0.3684,0.3813,0.3549,0.3525,0.3282,0.3286,0.303,0.2975,0.3653,0.3648,0.3644,0,0.3231,0.3188,0.3195,0.3162,0.3153,0.3109,0.3073,0.3119,0.3092,0.3107,0.3074,0.3126,0.3132,0.3265,0.3355,0.3468,0.3484,0.3302,0.3315,0.3177,0.3196,0.3131,0.3104,0.3081,0.3073,0.3066,0.306,0,0.3015,0.3049,0.3016,0.2976,0.294,0.2901,0.2876,0.2849,0.2892,0.2868,0.2826,0.2834,0.2896,0.2863,0.2968,0.3047,0.3068,0.3155,0.3111,0.277,0.2596,0.2578,0.3164,0.2998,0.3004,0.3009,0.3012,0.3015,0.2867,0.2817,0.2824,0.2757,0.2736,0.2689,0.2606,0.2603,0.2552,0.2449,0.2573,0.2466,0.2455,0.2544,0.2609,0.25,0.2633,0.2445,0.2475,0.2434,0.2299,0.2687,0.2473,0.2476,0.2479,0.2481,0.2483,0,0.2664,0.2649,0.2596,0.2539,0.246,0.2507,0.2447,0.2342,0.2231,0.2174,0.2113,0.197,0.1921,0.1966,0.1917,0.1846,0.1872,0.1816,0.1725,0.1757,0.2176,0.2069,0.1634,0.1634,0.1634,0.1634,0.1635,0.1635,0.2566,0.2461,0.2444,0.2281,0.224,0.2082,0.202,0.1895,0.1818,0.1585,0.1428,0.1423,0.1478,0.1412,0.1355,0.1368,0.1359,0.1197,0.1351,0.1691,0.1755,0.1816,0.1713,0.121,0.121,0.083,0.0827,0.0824]},{"header":{"parameterUnit":"m.s-1","parameterCategory":2,"la1":30.2991,"la2":30.254,"lo1":-89.0895,"lo2":-89.0444,"dy":0.0017,"dx":0.0017,"nx":28,"ny":28,"refTime":"2024-08-13T03:00:00:Z","depth":"0","parameterNumber":3,"parameterNumberName":"V-component_of_CURRENTS"},"data":[0,0,0,0,0,0,0,0,0,0,0,0,0,0,0,0,0,0,0,0,0,0,0,0,0,0,0,0,0,0,0,0,0,0,0,0,0,0,0,0,0,0,0,0,0,0,0,0,0,0,0,0,0,0,0,0,0,0,0.0132,0.0134,0,0.0316,0.0318,0.0321,0.0424,0.0424,0.0424,0.0424,0.0627,0.0632,0.0637,0,0,0,0,0,0,0,0,0,0,0,0,0,-0.0044,-0.0041,0.0132,0.0134,0.0136,0.0315,0.0318,0.0321,0.0424,0.0424,0.0424,0.0424,0.0625,0.0631,0.0638,0,0,0,0,0,0,0,0,0,0,0,0,0,0.0079,-0.004,0.0132,0.0206,0.0214,0.0315,0.0318,0.0322,0.0424,0.0424,0.0424,0.0424,0.0623,0.0631,0.0639,0.069,0,0,0.0664,0.0667,0,0,0,0,0,0,0,0,0.0072,0.0086,0.0193,0.0201,0.021,0.0343,0.0331,0.0445,0.0424,0.0349,0.0424,0.0424,0.0531,0.0547,0.0587,0.07,0.0709,0.0664,0.0669,0.0673,0.0675,0,0,0,0,0,0,0,0.0063,0.0079,0.0209,0.0195,0.0205,0.0259,0.0276,0.0353,0.0442,0.0355,0.0362,0.0376,0.0536,0.0579,0.0593,0.0712,0.0664,0.0671,0.0676,0.068,0.0902,0.0903,0,0,0,0,0,0,0.0028,0.0071,0.0203,0.0214,0.0135,0.0261,0.0281,0.0304,0.0441,0.046,0.0376,0.038,0.0565,0.0583,0.06,0.0699,0.0673,0.068,0.0685,0.0901,0.0903,0.0904,0,0,0,0,0,0,0.0024,0.0039,0.0196,0.0143,0.0166,0.0264,0.029,0.0308,0.0349,0.0455,0.0476,0.0397,0.0566,0.0589,0.0685,0.0706,0.0684,0.0692,0.09,0.0902,0.0903,0.0877,0,0,0,0,0,0,0.0018,0.0036,0.0045,0.0141,0.0167,0.0252,0.029,0.0311,0.0356,0.0363,0.0481,0.05,0.0567,0.0673,0.0693,0.0717,0.0698,0.0899,0.0901,0.0903,0.0876,0.0877,0.0878,0,0,0,0,0,0.0012,0.0023,0.0045,0.006,0.0175,0.0251,0.0271,0.0343,0.0356,0.0379,0.0467,0.0496,0.0699,0.0681,0.0705,0.0731,0.0898,0.09,0.0902,0.0876,0.0877,0.0878,0,0,0,0,0,0,-0.0029,0.0037,0.0062,0.0099,0.0165,0.0267,0.0289,0.0335,0.0423,0.0427,0.0523,0.055,0.064,0.0687,0.0664,0.0798,0.0798,0.0805,0.0769,0.0771,0.0772,0.0753,0.0705,0,0,0,0,0,-0.0042,-0.0025,0.0056,0.0088,0.0107,0.0194,0.0232,0.0281,0.0366,0.0404,0.0491,0.0579,0.0669,0.0719,0.08,0.0879,0.0882,0.0906,0.0907,0.0907,0.0908,0.0933,0.0935,0.0911,0.0911,0.0911,0,0,-0.0046,-0.0009,0.0004,0.0078,0.0128,0.0183,0.0218,0.0269,0.0334,0.0412,0.0518,0.0587,0.069,0.0785,0.0827,0.0827,0.0911,0.091,0.091,0.0911,0.0936,0.0938,0.094,0.0913,0.0912,0.0912,0,0,-0.0048,-0.0022,-0.0009,0.0038,0.0102,0.0164,0.0171,0.0268,0.0322,0.0426,0.0499,0.0575,0.0716,0.0796,0.0854,0.0904,0.0913,0.0924,0.0923,0.0946,0.0948,0.095,0.0926,0.0926,0.0927,0.0927,0.0927,0,-0.0052,-0.0017,0.0011,0.0043,0.0088,0.0149,0.0196,0.0266,0.0392,0.0446,0.0451,0.0655,0.0723,0.0853,0.087,0.0906,0.0903,0.091,0.0945,0.0947,0.0949,0.0925,0.0925,0.0926,0.0926,0.0926,0.0926,0,-0.0034,-0.0004,0.0004,0.0068,0.0119,0.0163,0.0252,0.0314,0.0374,0.0454,0.0574,0.0669,0.0788,0.0816,0.0865,0.093,0.0914,0.0937,0.0934,0.0949,0.0923,0.0923,0.0924,0.0925,0.0925,0.0925,0,0,-0.0021,0.0009,0.0019,0.0047,0.0134,0.0184,0.0272,0.0385,0.0454,0.0546,0.0643,0.0767,0.0796,0.0861,0.092,0.0938,0.0932,0.0937,0.0939,0.0899,0.0947,0.0915,0.0912,0.0959,0.096,0.0961,0.091,0,-0.0001,0.0032,0.0062,0.0135,0.0167,0.0243,0.0329,0.0432,0.0522,0.0627,0.0706,0.0814,0.0823,0.0873,0.0894,0.0949,0.0938,0.0941,0.0952,0.0952,0.0911,0.0914,0.0898,0.085,0.091,0.091,0.091,0,0.0033,0.0048,0.0091,0.0165,0.0188,0.0245,0.0382,0.0467,0.0611,0.0676,0.077,0.0841,0.092,0.0902,0.0954,0.0956,0.0937,0.0944,0.0943,0.0927,0.0923,0.0855,0.0849,0.0834,0.0911,0.0911,0.0911,0,0.0036,0.0088,0.0114,0.0141,0.0229,0.0274,0.0339,0.0479,0.0565,0.07,0.0767,0.0867,0.0926,0.0932,0.0951,0.0953,0.0972,0.0982,0.0922,0.0917,0.0913,0.0908,0.0885,0.0973,0.0973,0.0973,0.0973,0,0.0065,0.0102,0.0106,0.0128,0.0193,0.0256,0.0355,0.0444,0.0571,0.0682,0.0776,0.0874,0.0934,0.0972,0.0955,0.094,0.097,0.0914,0.0912,0.09,0.0895,0.089,0.09,0.0971,0.0971,0.0972,0.0972,0,0.0093,0.009,0.0125,0.017,0.0191,0.0239,0.0348,0.0431,0.0536,0.0679,0.0721,0.0877,0.0934,0.0958,0.0979,0.0949,0.093,0.0905,0.0863,0.0857,0.0792,0.0801,0.0796,0.0833,0.0836,0.0835,0.0834,0,0.012,0.0123,0.0136,0.0157,0.0178,0.0242,0.0307,0.0412,0.0503,0.0693,0.0767,0.0867,0.0963,0.0969,0.0943,0.089,0.0895,0.0813,0.0821,0.0778,0.0788,0.0805,0.084,0.0786,0.0785,0.0784,0.0784,0,0.0169,0.0147,0.0155,0.018,0.0222,0.029,0.0375,0.0435,0.0581,0.0681,0.0834,0.0913,0.0957,0.0944,0.0874,0.084,0.0828,0.0791,0.0781,0.0772,0.0759,0.0797,0.0796,0.0776,0.0776,0.0777,0.0777,0.0778,0.0199,0.0199,0.0183,0.0223,0.0272,0.0354,0.0405,0.0498,0.0616,0.0764,0.0834,0.0918,0.0913,0.0849,0.0813,0.072,0.0776,0.0683,0.0698,0.0719,0.0761,0.0714,0.068,0.0681,0.0681,0.0681,0.0681,0,0.023,0.0219,0.0246,0.0283,0.0344,0.0369,0.0475,0.0518,0.0628,0.0734,0.0819,0.0824,0.0793,0.0758,0.0656,0.0621,0.0659,0.0611,0.0641,0.0687,0.0661,0.0665,0.0588,0.0588,0.0588,0.0588,0.0588,0.0588,0.0245,0.0243,0.025,0.0344,0.0383,0.045,0.0501,0.0554,0.0619,0.0674,0.0691,0.0725,0.0748,0.0619,0.0557,0.0554,0.0609,0.0583,0.0641,0.061,0.0618,0.0626,0.0631,0.0549,0.0549,0.0677,0.0677,0.0678]}],[{"header":{"parameterUnit":"m.s-1","parameterCategory":2,"la1":30.2991,"la2":30.254,"lo1":-89.0895,"lo2":-89.0444,"dy":0.0017,"dx":0.0017,"nx":28,"ny":28,"refTime":"2024-08-13T03:00:00:Z","depth":"2","parameterNumber":2,"parameterNumberName":"U-component_of_CURRENTS"},"data":[0,0,0,0,0,0,0,0,0,0,0,0,0,0,0,0,0,0,0,0,0,0,0,0,0,0,0,0,0,0,0,0,0,0,0,0,0,0,0,0,0,0,0,0,0,0,0,0,0,0,0,0,0,0,0,0,0,0,0.2245,0.2245,0,0.2265,0.2264,0.2264,0.2221,0.222,0.222,0.2219,0.2445,0.2452,0.2458,0,0,0,0,0,0,0,0,0,0,0,0,0,0.2214,0.2213,0.2245,0.2245,0.2246,0.2265,0.2264,0.2264,0.2221,0.222,0.2219,0.2219,0.2443,0.2451,0.2459,0,0,0,0,0,0,0,0,0,0,0,0,0,0.2222,0.2213,0.2244,0.2233,0.2233,0.2265,0.2264,0.2264,0.2221,0.222,0.2219,0.2218,0.244,0.245,0.246,0.2543,0,0,0.2491,0.2495,0,0,0,0,0,0,0,0,0.2222,0.2223,0.2234,0.2234,0.2234,0.2246,0.2337,0.237,0.2221,0.2218,0.2219,0.2218,0.2404,0.2416,0.2409,0.2553,0.2563,0.2491,0.2498,0.2502,0.2505,0,0,0,0,0,0,0,0.2221,0.2222,0.2245,0.2235,0.2235,0.2243,0.2241,0.2341,0.2314,0.2218,0.2217,0.2231,0.2404,0.2399,0.2415,0.2566,0.2491,0.25,0.2506,0.251,0.2797,0.2799,0,0,0,0,0,0,0.2233,0.2221,0.2244,0.2246,0.2234,0.2244,0.2243,0.2237,0.2309,0.2319,0.2232,0.2229,0.2382,0.2403,0.2423,0.2532,0.2502,0.2511,0.2517,0.2796,0.2797,0.2799,0,0,0,0,0,0,0.2232,0.2234,0.2244,0.2241,0.2244,0.2246,0.224,0.2238,0.2316,0.2319,0.2331,0.2322,0.2382,0.2409,0.2519,0.2541,0.2516,0.2525,0.2794,0.2796,0.2798,0.275,0,0,0,0,0,0,0.223,0.2233,0.228,0.2241,0.2245,0.2304,0.2242,0.2239,0.2325,0.2323,0.24,0.2413,0.2383,0.2503,0.2529,0.2555,0.2533,0.2792,0.2795,0.2798,0.2749,0.275,0.2751,0,0,0,0,0,0.2229,0.2318,0.2281,0.2287,0.2292,0.2308,0.2311,0.2303,0.2332,0.2371,0.2392,0.2415,0.2539,0.2514,0.2543,0.2572,0.279,0.2794,0.2797,0.2749,0.275,0.2751,0,0,0,0,0,0,0.2365,0.2321,0.228,0.2359,0.2341,0.2304,0.2382,0.2377,0.2427,0.2458,0.2456,0.247,0.2566,0.2603,0.2574,0.2663,0.2665,0.2675,0.2618,0.262,0.2621,0.2598,0.2541,0,0,0,0,0,0.2404,0.2431,0.2385,0.2446,0.2462,0.244,0.2473,0.2454,0.2474,0.2498,0.252,0.2562,0.2594,0.2637,0.2675,0.2765,0.2789,0.2799,0.28,0.28,0.2802,0.2863,0.2868,0.2811,0.2811,0.2811,0,0,0.247,0.2456,0.2473,0.2474,0.2476,0.2441,0.2458,0.253,0.2486,0.2527,0.2542,0.2597,0.2625,0.2659,0.2708,0.2701,0.2825,0.2805,0.2804,0.2806,0.2867,0.2872,0.2877,0.2814,0.2813,0.2813,0,0,0.2559,0.2611,0.2623,0.2597,0.2604,0.2568,0.2612,0.2598,0.2602,0.2625,0.2617,0.2683,0.2752,0.2722,0.2729,0.2792,0.2836,0.2836,0.2817,0.2875,0.288,0.2884,0.2892,0.2897,0.2825,0.2825,0.2825,0,0.2646,0.2609,0.2643,0.2612,0.2594,0.2623,0.2594,0.2589,0.2595,0.261,0.2633,0.2716,0.2751,0.2766,0.2744,0.279,0.2828,0.2798,0.2873,0.2878,0.2883,0.2891,0.2897,0.2823,0.2824,0.2824,0.2824,0,0.2651,0.2636,0.2673,0.2583,0.2588,0.2605,0.2558,0.2589,0.2622,0.2589,0.2674,0.2712,0.2763,0.2775,0.2769,0.2826,0.2841,0.287,0.2858,0.2885,0.2892,0.29,0.2821,0.2821,0.2822,0.2822,0,0,0.2792,0.2684,0.2694,0.2622,0.2574,0.2576,0.2547,0.252,0.2534,0.257,0.2595,0.2635,0.2727,0.2744,0.2789,0.2815,0.2858,0.2859,0.2863,0.2845,0.2973,0.2667,0.2646,0.2919,0.2921,0.2923,0.295,0,0.2774,0.269,0.264,0.2557,0.2511,0.2498,0.2456,0.245,0.248,0.2514,0.2597,0.266,0.2693,0.277,0.2803,0.2867,0.2885,0.2847,0.297,0.2972,0.2679,0.2646,0.2512,0.2498,0.2958,0.2959,0.296,0,0.2755,0.2698,0.2615,0.2505,0.2499,0.2468,0.2466,0.243,0.2469,0.2508,0.2602,0.2681,0.2758,0.2798,0.2903,0.2894,0.2934,0.2958,0.2961,0.2697,0.2679,0.2556,0.2495,0.2973,0.2972,0.2971,0.297,0,0.279,0.2678,0.2618,0.2571,0.2465,0.2479,0.2467,0.2474,0.2469,0.2559,0.2601,0.271,0.2806,0.2885,0.2945,0.2958,0.3034,0.3061,0.2808,0.2788,0.2701,0.2665,0.3121,0.3121,0.3121,0.3121,0.3121,0,0.2743,0.2688,0.2652,0.2607,0.2576,0.2533,0.2542,0.2533,0.2571,0.2565,0.2658,0.2692,0.2844,0.2902,0.2953,0.2873,0.3055,0.2776,0.2765,0.2671,0.2635,0.3085,0.308,0.3122,0.3122,0.3122,0.3121,0,0.2709,0.268,0.2608,0.2573,0.2574,0.2577,0.2564,0.2556,0.2611,0.2622,0.2665,0.2721,0.2759,0.2838,0.2936,0.284,0.2826,0.276,0.2591,0.2551,0.2539,0.2533,0.2461,0.245,0.2441,0.2434,0.2427,0,0.2645,0.2619,0.2611,0.2597,0.2583,0.2591,0.2572,0.2591,0.2573,0.2605,0.2597,0.2654,0.2586,0.2555,0.2505,0.2463,0.2627,0.2218,0.2159,0.247,0.2469,0.2477,0.2483,0.2063,0.2054,0.2047,0.2041,0,0.2534,0.2585,0.2535,0.2527,0.2534,0.2487,0.2489,0.2473,0.248,0.2464,0.2413,0.2368,0.2317,0.2145,0.2034,0.2001,0.2196,0.2046,0.2502,0.2177,0.2076,0.208,0.2104,0.1976,0.1983,0.1987,0.1991,0.1993,0.2472,0.2444,0.2442,0.2383,0.2392,0.2345,0.226,0.2241,0.2166,0.2048,0.2151,0.1975,0.1955,0.1636,0.1597,0.1571,0.169,0.161,0.1644,0.1683,0.1558,0.1437,0.1196,0.1198,0.12,0.1201,0.1202,0,0.2313,0.2296,0.2273,0.2204,0.2121,0.2193,0.2121,0.1987,0.1808,0.177,0.1662,0.1437,0.1258,0.1303,0.1153,0.1045,0.1184,0.0998,0.1232,0.129,0.1345,0.1216,0.0757,0.0756,0.0755,0.0754,0,0,0.2236,0.2149,0.2111,0.1918,0.1878,0.1743,0.1661,0.1496,0.1411,0.1203,0.1091,0.1093,0.1155,0.0926,0.0897,0.0816,0.1059,0.0773,0.1124,0.1455,0.1509,0.1671,0.1529,0,0,0,0,0]},{"header":{"parameterUnit":"m.s-1","parameterCategory":2,"la1":30.2991,"la2":30.254,"lo1":-89.0895,"lo2":-89.0444,"dy":0.0017,"dx":0.0017,"nx":28,"ny":28,"refTime":"2024-08-13T03:00:00:Z","depth":"2","parameterNumber":3,"parameterNumberName":"V-component_of_CURRENTS"},"data":[0,0,0,0,0,0,0,0,0,0,0,0,0,0,0,0,0,0,0,0,0,0,0,0,0,0,0,0,0,0,0,0,0,0,0,0,0,0,0,0,0,0,0,0,0,0,0,0,0,0,0,0,0,0,0,0,0,0,-0.029,-0.0289,0,-0.0184,-0.0182,-0.0181,-0.0149,-0.015,-0.0151,-0.0152,-0.0045,-0.0041,-0.0037,0,0,0,0,0,0,0,0,0,0,0,0,0,-0.0381,-0.038,-0.029,-0.0289,-0.0288,-0.0184,-0.0182,-0.018,-0.0148,-0.015,-0.0151,-0.0152,-0.0046,-0.0041,-0.0037,0,0,0,0,0,0,0,0,0,0,0,0,0,-0.031,-0.0379,-0.029,-0.0264,-0.0261,-0.0185,-0.0182,-0.018,-0.0148,-0.015,-0.0151,-0.0153,-0.0047,-0.0042,-0.0036,0.0029,0,0,-0.0019,-0.0016,0,0,0,0,0,0,0,0,-0.0314,-0.0306,-0.0268,-0.0265,-0.0262,-0.0186,-0.0175,-0.0111,-0.0148,-0.0185,-0.0152,-0.0153,-0.0094,-0.0085,-0.0054,0.0035,0.0039,-0.0018,-0.0015,-0.0012,-0.0011,0,0,0,0,0,0,0,-0.0319,-0.031,-0.0243,-0.0268,-0.0264,-0.0229,-0.0221,-0.0162,-0.0128,-0.0182,-0.0181,-0.0177,-0.0092,-0.0059,-0.0051,0.0041,-0.0018,-0.0013,-0.001,-0.0008,0.0164,0.0165,0,0,0,0,0,0,-0.0345,-0.0315,-0.0246,-0.024,-0.0298,-0.0227,-0.0217,-0.0204,-0.0129,-0.012,-0.0176,-0.0176,-0.0068,-0.0058,-0.0047,0.0029,-0.0012,-0.0007,-0.0004,0.0163,0.0164,0.0166,0,0,0,0,0,0,-0.0348,-0.034,-0.025,-0.028,-0.0267,-0.0225,-0.021,-0.0202,-0.0184,-0.0125,-0.0116,-0.017,-0.0069,-0.0055,0.001,0.0033,-0.0005,0.0001,0.0162,0.0163,0.0165,0.0185,0,0,0,0,0,0,-0.035,-0.0341,-0.0344,-0.0281,-0.0267,-0.0208,-0.0208,-0.0199,-0.0181,-0.018,-0.0116,-0.0107,-0.0069,0.0002,0.0016,0.004,0.0005,0.016,0.0162,0.0164,0.0183,0.0187,0.0191,0,0,0,0,0,-0.0354,-0.0354,-0.0345,-0.0337,-0.0271,-0.0208,-0.0195,-0.0167,-0.018,-0.016,-0.0114,-0.011,0.0024,0.0008,0.0025,0.0051,0.0159,0.0162,0.0164,0.0181,0.0187,0.0191,0,0,0,0,0,0,-0.0411,-0.0349,-0.0338,-0.0325,-0.0273,-0.0205,-0.0193,-0.0174,-0.0121,-0.0129,-0.008,-0.0065,-0.0,0.0022,0.0003,0.0104,0.0087,0.0093,0.0094,0.01,0.0104,0.0092,0.001,0,0,0,0,0,-0.0422,-0.0399,-0.0336,-0.0328,-0.0304,-0.0251,-0.0228,-0.0203,-0.015,-0.013,-0.008,-0.0031,0.0029,0.0058,0.0114,0.0178,0.0166,0.0199,0.0203,0.0206,0.0207,0.0208,0.0212,0.0174,0.0174,0.0174,0,0,-0.0448,-0.041,-0.0401,-0.0337,-0.0299,-0.0245,-0.0239,-0.0203,-0.0156,-0.0124,-0.0052,-0.0011,0.0049,0.0123,0.0152,0.0142,0.0211,0.021,0.0212,0.0211,0.0211,0.0215,0.0218,0.0176,0.0176,0.0175,0,0,-0.0467,-0.0446,-0.0422,-0.0371,-0.0312,-0.0262,-0.0256,-0.0182,-0.015,-0.0072,-0.004,0.0012,0.0105,0.0158,0.0193,0.0251,0.0233,0.026,0.0275,0.0277,0.028,0.0282,0.0264,0.0264,0.026,0.026,0.026,0,-0.0501,-0.0457,-0.0409,-0.0362,-0.0322,-0.0271,-0.0225,-0.017,-0.0084,-0.0045,-0.0054,0.0087,0.0124,0.0224,0.0239,0.0261,0.0246,0.0253,0.028,0.0282,0.0284,0.0266,0.0266,0.0262,0.0262,0.0261,0.0261,0,-0.0481,-0.0448,-0.043,-0.0343,-0.0291,-0.0248,-0.0163,-0.0108,-0.0071,-0.0015,0.0077,0.0139,0.0219,0.0236,0.0257,0.0306,0.0285,0.0284,0.0263,0.0289,0.0268,0.0268,0.0264,0.0263,0.0263,0.0262,0,0,-0.0517,-0.0436,-0.0423,-0.0383,-0.0278,-0.0227,-0.0143,-0.0041,0.0016,0.0085,0.0164,0.0248,0.0266,0.0306,0.0339,0.0336,0.033,0.0309,0.0308,0.0282,0.0312,0.0341,0.0343,0.0326,0.0326,0.0326,0.0288,0,-0.0506,-0.0448,-0.039,-0.0307,-0.0259,-0.0176,-0.0093,0.0001,0.0077,0.0171,0.0228,0.0314,0.0301,0.0339,0.0338,0.0351,0.0331,0.0339,0.0299,0.0298,0.0313,0.0346,0.0281,0.0245,0.0288,0.0288,0.0288,0,-0.0467,-0.0435,-0.0379,-0.0277,-0.0247,-0.0185,-0.0044,0.0033,0.0169,0.0225,0.0307,0.0364,0.0423,0.0385,0.0389,0.0391,0.0343,0.0324,0.0323,0.0344,0.0328,0.023,0.0243,0.0287,0.0287,0.0287,0.0287,0,-0.0478,-0.0401,-0.0366,-0.033,-0.0216,-0.0165,-0.0095,0.0044,0.0133,0.026,0.0336,0.0405,0.0462,0.042,0.0408,0.0387,0.0385,0.0356,0.0331,0.0331,0.0266,0.0262,0.0317,0.0317,0.0317,0.0318,0.0318,0,-0.0454,-0.0405,-0.0378,-0.0343,-0.0265,-0.0189,-0.0074,0.0015,0.015,0.0276,0.0352,0.0461,0.0467,0.0495,0.0428,0.0402,0.0401,0.0339,0.0333,0.0273,0.027,0.0301,0.03,0.0316,0.0316,0.0317,0.0317,0,-0.0427,-0.0419,-0.0356,-0.0289,-0.0259,-0.0198,-0.0053,0.0039,0.0145,0.0313,0.036,0.0505,0.0544,0.0538,0.0497,0.0452,0.0404,0.0379,0.031,0.0297,0.0329,0.0329,0.0338,0.0339,0.034,0.0341,0.0341,0,-0.0397,-0.0383,-0.0327,-0.0279,-0.0239,-0.0153,-0.0068,0.0038,0.0144,0.0352,0.0439,0.0542,0.0627,0.0599,0.0529,0.0435,0.0429,0.033,0.0288,0.0344,0.0335,0.0334,0.0334,0.0191,0.019,0.019,0.0189,0,-0.0326,-0.0327,-0.0292,-0.022,-0.0146,-0.0053,0.0057,0.0131,0.0281,0.0397,0.056,0.0627,0.064,0.0566,0.0479,0.0406,0.0348,0.0317,0.0396,0.0219,0.0208,0.02,0.0202,0.0184,0.0184,0.0185,0.0185,0.0185,-0.0263,-0.0237,-0.0205,-0.0128,-0.0048,0.0059,0.0126,0.0233,0.0366,0.0519,0.0584,0.0643,0.0595,0.046,0.0391,0.0321,0.0322,0.0251,0.0251,0.0251,0.0265,0.0259,0.0244,0.0245,0.0245,0.0246,0.0247,0,-0.0178,-0.0158,-0.0091,-0.0005,0.0082,0.0112,0.0234,0.0278,0.0396,0.0496,0.0572,0.0506,0.0438,0.0394,0.0262,0.0204,0.0171,0.0193,0.0136,0.014,0.0144,0.0152,0.0101,0.0101,0.0101,0.0101,0,0,-0.0127,-0.0071,-0.0056,0.0098,0.0162,0.0248,0.0301,0.034,0.0391,0.0443,0.0461,0.0478,0.0431,0.0315,0.0226,0.0159,0.0167,0.0148,0.0257,0.02,0.0205,0.0159,0.0174,0,0,0,0,0]}],[{"header":{"parameterUnit":"m.s-1","parameterCategory":2,"la1":30.2991,"la2":30.254,"lo1":-89.0895,"lo2":-89.0444,"dy":0.0017,"dx":0.0017,"nx":28,"ny":28,"refTime":"2024-08-13T03:00:00:Z","depth":"4","parameterNumber":2,"parameterNumberName":"U-component_of_CURRENTS"},"data":[0,0,0,0,0,0,0,0,0,0,0,0,0,0,0,0,0,0,0,0,0,0,0,0,0,0,0,0,0,0,0,0,0,0,0,0,0,0,0,0,0,0,0,0,0,0,0,0,0,0,0,0,0,0,0,0,0,0,-0.0347,-0.0347,0,-0.0316,-0.0315,-0.0315,-0.025,-0.0249,-0.0248,-0.0247,-0.0225,-0.0225,-0.0226,0,0,0,0,0,0,0,0,0,0,0,0,0,-0.0321,-0.0322,-0.0347,-0.0347,-0.0347,-0.0316,-0.0315,-0.0315,-0.025,-0.0249,-0.0247,-0.0246,-0.0225,-0.0225,-0.0226,0,0,0,0,0,0,0,0,0,0,0,0,0,-0.0313,-0.0322,-0.0347,-0.0313,-0.031,-0.0316,-0.0315,-0.0314,-0.025,-0.0248,-0.0247,-0.0246,-0.0225,-0.0225,-0.0226,-0.026,0,0,-0.0228,-0.0228,0,0,0,0,0,0,0,0,-0.0313,-0.0313,-0.0318,-0.0316,-0.0312,-0.0288,-0.0298,-0.0298,-0.025,-0.0269,-0.0247,-0.0245,-0.025,-0.0249,-0.0241,-0.0259,-0.0258,-0.0228,-0.0228,-0.0228,-0.0228,0,0,0,0,0,0,0,-0.0314,-0.0314,-0.0331,-0.0318,-0.0315,-0.029,-0.0287,-0.0297,-0.0267,-0.0268,-0.0264,-0.0266,-0.0248,-0.0241,-0.0241,-0.0258,-0.0228,-0.0228,-0.0229,-0.0229,-0.02,-0.0199,0,0,0,0,0,0,-0.0328,-0.0315,-0.0333,-0.0331,-0.0312,-0.0292,-0.0288,-0.0295,-0.0266,-0.0261,-0.0267,-0.0263,-0.0241,-0.024,-0.024,-0.0098,-0.0228,-0.0229,-0.0229,-0.0201,-0.0199,-0.0198,0,0,0,0,0,0,-0.0327,-0.033,-0.0334,-0.0324,-0.0323,-0.0294,-0.0302,-0.0295,-0.023,-0.0266,-0.026,-0.0203,-0.024,-0.0239,-0.0175,-0.0104,-0.0229,-0.023,-0.0202,-0.02,-0.0199,0.0069,0,0,0,0,0,0,-0.0327,-0.033,-0.0337,-0.0326,-0.0325,-0.03,-0.0303,-0.0295,-0.0239,-0.0231,-0.0211,-0.021,-0.0238,-0.0174,-0.0176,-0.0107,-0.023,-0.0203,-0.0201,-0.0199,0.0059,0.008,0.0098,0,0,0,0,0,-0.0326,-0.0336,-0.0338,-0.034,-0.0337,-0.0299,-0.0294,-0.0267,-0.0237,-0.0202,-0.0165,-0.0208,-0.0165,-0.0171,-0.0175,-0.0104,-0.0204,-0.0202,-0.0199,0.005,0.0076,0.0097,0,0,0,0,0,0,-0.0316,-0.0331,-0.0332,-0.0344,-0.0309,-0.0288,-0.0269,-0.0232,-0.0176,-0.0147,-0.0168,-0.0165,-0.0091,-0.015,-0.0158,-0.0102,-0.0203,-0.0201,-0.0013,0.0011,0.003,0.0008,-0.0231,0,0,0,0,0,-0.0326,-0.0339,-0.0327,-0.0328,-0.0314,-0.0276,-0.0256,-0.0212,-0.017,-0.014,-0.0098,-0.0093,-0.0098,-0.0077,-0.0089,-0.004,-0.0189,-0.0015,0.0005,0.0023,-0.0004,-0.0212,-0.0215,-0.019,-0.019,-0.019,0,0,-0.0325,-0.0332,-0.034,-0.0327,-0.0304,-0.0246,-0.0256,-0.0189,-0.0106,-0.0151,-0.0003,-0.0009,-0.0073,-0.0008,0.0015,-0.0032,-0.0043,0.0026,0.0043,0.0005,-0.021,-0.0213,-0.0216,-0.0188,-0.0189,-0.0189,0,0,-0.031,-0.0327,-0.0323,-0.0283,-0.0232,-0.0198,-0.016,-0.0074,-0.0007,0.0121,0.0093,0.0113,0.0182,0.0122,0.0096,0.0193,0.0063,0.0224,0.0323,0.0125,0.012,0.0114,0.001,-0.0008,0.0238,0.0239,0.0239,0,-0.0299,-0.0292,-0.0307,-0.0262,-0.0212,-0.0161,-0.0085,-0.002,0.0103,0.0141,0.0205,0.023,0.0213,0.0179,0.026,0.0236,0.0144,0.0262,0.015,0.014,0.0129,0.0022,-0.0001,0.0252,0.025,0.0249,0.0248,0,-0.027,-0.0239,-0.0218,-0.0153,-0.0098,-0.0018,0.0067,0.017,0.0284,0.0331,0.04,0.0385,0.0379,0.0395,0.0396,0.0326,0.03,0.0201,0.0099,0.0143,0.0029,-0.0,0.0271,0.0266,0.0262,0.0259,0,0,-0.0284,-0.0216,-0.0198,-0.0141,-0.0018,0.0036,0.0173,0.0268,0.0322,0.0464,0.0492,0.0551,0.0549,0.051,0.048,0.0356,0.0276,0.0313,0.0296,0.0226,-0.0074,0.014,0.0127,0.0184,0.0179,0.0174,-0.009,0,-0.0236,-0.0154,-0.0114,0.0025,0.0088,0.0184,0.0288,0.0387,0.0471,0.0517,0.0489,0.0516,0.0586,0.0602,0.0504,0.0291,0.02,0.0361,-0.0125,-0.0139,0.0056,0.0098,0.0157,-0.0113,-0.012,-0.0125,-0.0128,0,-0.0204,-0.0149,-0.0028,0.0103,0.014,0.0249,0.0386,0.0485,0.0521,0.0579,0.0592,0.0572,0.049,0.0503,0.0207,0.0329,0.0185,0.0019,0.0001,0.0068,0.0018,-0.0197,-0.0184,-0.0179,-0.0175,-0.0172,-0.0168,0,-0.0213,-0.0078,0.002,0.0077,0.0228,0.0325,0.0425,0.0512,0.0556,0.0593,0.059,0.0514,0.0435,0.0243,0.0064,0.0126,-0.0337,-0.0348,-0.0302,-0.0289,-0.0526,-0.0519,-0.0602,-0.0602,-0.0601,-0.06,-0.06,0,-0.0178,-0.0099,0.0035,0.0096,0.0221,0.0346,0.0453,0.0536,0.0573,0.0552,0.0621,0.0543,0.0362,0.0136,-0.001,-0.021,-0.0399,-0.028,-0.0354,-0.0391,-0.0367,-0.0542,-0.0531,-0.061,-0.0608,-0.0606,-0.0604,0,-0.0209,-0.0121,-0.0017,0.0153,0.0218,0.0314,0.0466,0.0501,0.0582,0.0532,0.0549,0.0484,0.0306,0.0113,-0.0278,-0.0309,-0.0556,-0.0598,-0.0574,-0.0646,-0.034,-0.0313,-0.0535,-0.053,-0.0525,-0.0522,-0.0519,0,-0.0217,-0.0167,-0.0012,0.0052,0.0146,0.0293,0.037,0.0499,0.0487,0.0476,0.0391,0.0302,0.0261,-0.0105,-0.028,-0.0508,-0.0516,-0.0633,-0.0458,-0.0288,-0.0341,-0.032,-0.03,-0.0512,-0.0511,-0.051,-0.0509,0,-0.0249,-0.0201,-0.0139,-0.0007,0.0105,0.0189,0.0288,0.0285,0.0369,0.0386,0.0322,0.0298,0.0105,-0.0046,-0.0198,-0.0389,-0.0544,-0.0587,-0.0595,-0.0431,-0.0264,-0.0315,-0.03,-0.0494,-0.0496,-0.0497,-0.0498,0,-0.0298,-0.0282,-0.019,-0.0062,0.0055,0.0126,0.0169,0.0208,0.0249,0.026,0.019,0.0143,0.0071,0.0005,-0.0199,-0.0261,-0.0221,-0.0251,-0.0276,-0.0294,-0.0078,0.0179,0.0018,0,0,0,0,0,-0.032,-0.0298,-0.0231,-0.0091,0.0019,0.0108,0.0137,0.0155,0.0186,0.0164,0.0224,0.0114,0.0073,0.0002,-0.0011,-0.0122,-0.0279,-0.0139,-0.0339,-0.0411,-0.0428,-0.0188,0,0,0,0,0,0,-0.0343,-0.0308,-0.0259,-0.0101,0.0003,0.0108,0.0146,0.0131,0.0123,0.0151,0.0112,0.0156,0.0067,0.0109,0.0011,-0.001,-0.0128,-0.0166,-0.0165,-0.0401,-0.0417,-0.0431,-0.019,0,0,0,0,0]},{"header":{"parameterUnit":"m.s-1","parameterCategory":2,"la1":30.2991,"la2":30.254,"lo1":-89.0895,"lo2":-89.0444,"dy":0.0017,"dx":0.0017,"nx":28,"ny":28,"refTime":"2024-08-13T03:00:00:Z","depth":"4","parameterNumber":3,"parameterNumberName":"V-component_of_CURRENTS"},"data":[0,0,0,0,0,0,0,0,0,0,0,0,0,0,0,0,0,0,0,0,0,0,0,0,0,0,0,0,0,0,0,0,0,0,0,0,0,0,0,0,0,0,0,0,0,0,0,0,0,0,0,0,0,0,0,0,0,0,0.0416,0.0417,0,0.0534,0.0536,0.0537,0.0639,0.064,0.0641,0.0641,0.051,0.0506,0.0502,0,0,0,0,0,0,0,0,0,0,0,0,0,0.0364,0.0364,0.0416,0.0417,0.0418,0.0533,0.0536,0.0538,0.0639,0.064,0.0641,0.0642,0.0511,0.0506,0.0501,0,0,0,0,0,0,0,0,0,0,0,0,0,0.0429,0.0364,0.0416,0.0479,0.0485,0.0533,0.0536,0.0538,0.0639,0.064,0.0641,0.0642,0.0513,0.0507,0.0501,0.0443,0,0,0.0482,0.0479,0,0,0,0,0,0,0,0,0.0425,0.0432,0.0469,0.0474,0.0482,0.0568,0.0469,0.0492,0.0639,0.0586,0.0641,0.0642,0.0502,0.0497,0.0528,0.0437,0.0431,0.0481,0.0478,0.0475,0.0473,0,0,0,0,0,0,0,0.0421,0.0428,0.0468,0.0469,0.0477,0.0529,0.054,0.0476,0.0537,0.0591,0.0597,0.0601,0.0505,0.0534,0.0525,0.0429,0.0482,0.0476,0.0472,0.047,0.0264,0.0263,0,0,0,0,0,0,0.0389,0.0423,0.0465,0.0471,0.0449,0.0529,0.054,0.0544,0.0543,0.0545,0.06,0.0606,0.0544,0.0532,0.052,0.0462,0.0475,0.0469,0.0466,0.0266,0.0264,0.0262,0,0,0,0,0,0,0.0388,0.0392,0.046,0.0446,0.0457,0.0527,0.0531,0.0545,0.0625,0.0552,0.055,0.067,0.0545,0.0529,0.0465,0.0456,0.0467,0.0461,0.0268,0.0266,0.0263,0.0335,0,0,0,0,0,0,0.0386,0.0391,0.0417,0.0443,0.0457,0.0521,0.053,0.0547,0.062,0.063,0.0608,0.0596,0.0544,0.0475,0.0459,0.0448,0.0456,0.027,0.0267,0.0264,0.0335,0.0335,0.0336,0,0,0,0,0,0.0384,0.0403,0.0417,0.0424,0.0478,0.0522,0.0537,0.0593,0.0623,0.0668,0.0619,0.0599,0.0442,0.0468,0.0451,0.0437,0.0272,0.0268,0.0264,0.0335,0.0335,0.0336,0,0,0,0,0,0,0.04,0.0416,0.0431,0.0458,0.0502,0.0538,0.0601,0.0622,0.0634,0.0644,0.0579,0.0561,0.0496,0.0451,0.0482,0.0363,0.0353,0.0345,0.0412,0.0412,0.0412,0.043,0.0451,0,0,0,0,0,0.0408,0.0439,0.0455,0.0492,0.0521,0.0572,0.061,0.0636,0.0634,0.0651,0.0608,0.0544,0.0459,0.0429,0.0354,0.0299,0.0275,0.0274,0.0274,0.0275,0.0273,0.0182,0.0175,0.0249,0.0249,0.0249,0,0,0.0423,0.0443,0.046,0.05,0.0555,0.0582,0.0603,0.0672,0.0675,0.0618,0.0616,0.0545,0.0441,0.0369,0.0337,0.0339,0.0258,0.027,0.0272,0.0269,0.0177,0.017,0.0164,0.0246,0.0247,0.0247,0,0,0.0466,0.0498,0.0537,0.0574,0.0639,0.0642,0.0667,0.0704,0.0721,0.0695,0.0626,0.0543,0.0468,0.0364,0.0304,0.0256,0.0256,0.0252,0.0277,0.0189,0.0183,0.0177,0.0223,0.022,0.026,0.026,0.026,0,0.0492,0.0531,0.0561,0.061,0.0641,0.0668,0.0706,0.0711,0.0707,0.0675,0.0702,0.0518,0.045,0.0298,0.0297,0.0256,0.0265,0.0294,0.0193,0.0186,0.0179,0.0226,0.0222,0.0263,0.0263,0.0262,0.0262,0,0.0542,0.0596,0.0637,0.0683,0.0712,0.0766,0.075,0.0757,0.0763,0.0724,0.062,0.0517,0.0411,0.0368,0.0332,0.0224,0.0274,0.0205,0.0206,0.0176,0.0228,0.0223,0.0267,0.0266,0.0265,0.0265,0,0,0.0552,0.0648,0.0676,0.0715,0.076,0.0785,0.0773,0.0742,0.0707,0.0674,0.0597,0.0468,0.0431,0.0359,0.028,0.0207,0.0201,0.022,0.0214,0.0294,0.0128,0.0094,0.0086,0.0132,0.0129,0.0127,0.0219,0,0.06,0.0697,0.0717,0.0792,0.0835,0.0836,0.0814,0.0774,0.0722,0.0637,0.0514,0.0427,0.0419,0.0386,0.0305,0.0172,0.0178,0.019,0.0119,0.0119,0.0111,0.0071,0.0118,0.0215,0.0214,0.0213,0.0212,0,0.0636,0.07,0.0795,0.084,0.0861,0.0888,0.0851,0.0832,0.0692,0.0656,0.0542,0.0451,0.0316,0.0332,0.0175,0.0198,0.0214,0.0147,0.0147,0.0075,0.0069,0.0222,0.0202,0.0203,0.0204,0.0204,0.0205,0,0.0631,0.0741,0.0822,0.0854,0.0899,0.0929,0.0936,0.0842,0.0794,0.0676,0.0609,0.0446,0.0355,0.0289,0.0213,0.0209,0.0065,0.0022,0.0033,0.0037,0.0018,0.0022,-0.0011,-0.0011,-0.0012,-0.0012,-0.0012,0,0.0641,0.0715,0.0848,0.0897,0.0949,0.0979,0.0968,0.0939,0.0841,0.0699,0.0644,0.0479,0.0339,0.0228,0.0209,0.0105,0.0086,0.004,0.0021,0.006,0.0066,0.0021,0.0024,-0.0008,-0.0009,-0.001,-0.001,0,0.0611,0.0715,0.0809,0.0921,0.0958,0.1002,0.1023,0.0961,0.0924,0.0732,0.071,0.0503,0.0328,0.0252,0.01,0.0081,0.0002,0.0021,0.0167,0.0155,0.0064,0.0069,-0.0001,-0.0002,-0.0003,-0.0004,-0.0005,0,0.059,0.066,0.0827,0.0878,0.0949,0.1014,0.1008,0.1007,0.0883,0.0684,0.053,0.0386,0.0234,0.0063,-0.0025,-0.0017,-0.0014,0.0048,-0.0035,0.0058,0.0047,0.0054,0.006,-0.0007,-0.0007,-0.0007,-0.0008,0,0.0538,0.0642,0.0707,0.0824,0.0888,0.0907,0.0881,0.081,0.0694,0.0658,0.0388,0.0291,0.0079,-0.0044,0.0016,-0.0007,0.0014,0.0036,0.0037,-0.0041,0.005,0.0042,0.0049,-0.0012,-0.0011,-0.0011,-0.001,0,0.0497,0.0521,0.0633,0.0715,0.0789,0.076,0.0781,0.0645,0.0579,0.0365,0.0247,0.0106,0.0006,-0.004,-0.0048,-0.003,-0.0061,-0.0016,-0.0013,-0.0009,-0.0071,0.0039,-0.005,0,0,0,0,0,0.0438,0.0447,0.05,0.0577,0.0644,0.0681,0.0637,0.0619,0.0492,0.0309,0.0301,0.012,0.0028,-0.0046,-0.004,-0.01,-0.0059,-0.0093,-0.0004,-0.0033,-0.0028,-0.011,0,0,0,0,0,0,0.0395,0.0439,0.0446,0.0441,0.0467,0.0495,0.0481,0.0416,0.0307,0.0209,0.0165,0.0134,0.0053,0.003,-0.0042,-0.0053,0.0011,-0.0137,-0.0136,-0.0035,-0.0031,-0.0028,-0.011,0,0,0,0,0]}]]